TimeCST,TemperatureF,Dew PointF,Humidity,Sea Level PressureIn,VisibilityMPH,Wind Direction,Wind SpeedMPH,Gust SpeedMPH,PrecipitationIn,Events,Conditions,WindDirDegrees,DateUTC
12:00 AM,-9999,-9999,N/A,-9999,6.2,NNE,3.5,-,N/A,,Scattered Clouds,30,2012-10-08 06:00:00
1:00 AM,66.2,62.6,88,29.95,-9999.0,NNE,3.5,-,N/A,,Clear,20,2012-10-08 07:00:00
2:00 AM,66.2,62.6,88,9.96,6.2,Calm,Calm,-,N/A,,Unknown,0,2012-10-08 08:00:00
3:00 AM,64.4,62.6,94,29.97,-9999.0,NNE,4.6,-,N/A,,Clear,30,2012-10-08 09:00:00
4:00 AM,66.2,62.6,88,29.98,-9999.0,ENE,2.3,-,N/A,,Clear,60,2012-10-08 10:00:00
5:00 AM,66.2,64.4,94,29.98,-9999.0,NE,3.5,-,N/A,,Clear,50,2012-10-08 11:00:00
6:00 AM,67,63,81,29.85,12,NNE,2.3,,,,Clear,30,2012-10-08 12:00:00
6:00 AM,66.2,62.6,88,30.00,-9999.0,NNE,2.3,-,N/A,,Clear,30,2012-10-08 12:00:00
7:00 AM,69.8,64.4,83,30.04,6.2,SSW,3.5,-,N/A,,Mostly Cloudy,200,2012-10-08 13:00:00
8:00 AM,71.6,64.4,78,30.04,6.2,Calm,Calm,-,N/A,,Mostly Cloudy,0,2012-10-08 14:00:00
9:00 AM,74,65,67,,12,South,4.6,,,,Overcast,190,2012-10-08 15:00:00
9:00 AM,75.2,64.4,69,30.04,6.2,South,4.6,-,N/A,,Mostly Cloudy,190,2012-10-08 15:00:00
10:00 AM,75.2,66.2,73,30.05,6.2,West,6.9,-,N/A,,Mostly Cloudy,260,2012-10-08 16:00:00
11:00 AM,75.2,66.2,73,30.02,6.2,WSW,5.8,-,N/A,,Mostly Cloudy,250,2012-10-08 17:00:00
12:00 PM,74,67,73,29.87,12,WSW,11.5,,,,Overcast,240,2012-10-08 18:00:00
12:00 PM,75.2,68.0,78,30.00,6.2,WSW,11.5,-,N/A,Rain,Rain Showers,240,2012-10-08 18:00:00
1:00 PM,71.6,68.0,88,30.00,3.1,WSW,9.2,-,N/A,Rain,Rain,250,2012-10-08 19:00:00
2:00 PM,68.0,64.4,88,29.97,3.1,NW,4.6,-,N/A,Rain,Light Rain,310,2012-10-08 20:00:00
3:00 PM,69,65,83,29.87,3,NNE,4.6,,,Rain,Light Rain,30,2012-10-08 21:00:00
3:00 PM,68.0,64.4,88,29.97,3.1,NNE,4.6,-,N/A,Rain,Light Rain,30,2012-10-08 21:00:00
4:00 PM,68.0,66.2,94,29.97,1.9,SW,5.8,-,N/A,Rain,Light Rain,230,2012-10-08 22:00:00
5:00 PM,68.0,66.2,94,29.99,5.0,South,2.3,-,N/A,Fog,Fog,180,2012-10-08 23:00:00
6:00 PM,68,65,89,29.89,9,Calm,Calm,,,,Overcast,,2012-10-09 00:00:00
6:00 PM,68.0,66.2,94,30.01,6.2,Calm,Calm,-,N/A,,Mostly Cloudy,0,2012-10-09 00:00:00
7:00 PM,68.0,66.2,94,30.04,6.2,WSW,2.3,-,N/A,,Mostly Cloudy,240,2012-10-09 01:00:00
8:00 PM,68.0,66.2,94,30.06,6.2,SW,1.2,-,N/A,,Mostly Cloudy,220,2012-10-09 02:00:00
9:00 PM,68,66,90,29.94,2,West,1.2,,,Rain,Light Rain,260,2012-10-09 03:00:00
9:00 PM,68.0,66.2,94,30.08,5.6,West,1.2,-,N/A,Fog-Rain,Light Rain,260,2012-10-09 03:00:00
10:00 PM,68.0,66.2,94,30.07,6.2,Calm,Calm,-,N/A,Fog-Rain,Light Rain,0,2012-10-09 04:00:00
11:00 PM,68.0,66.2,94,30.05,5.6,Variable,2.3,-,N/A,Fog,Drizzle,0,2012-10-09 05:00:00